Location: Cheching
(60.0667°N, 164.2167°W)
Time: 11:39:02
(UTC+00:00)

UNISAT 6 - Pass Details

Date: 18 January 2021
Orbit: 607 x 687 km, 97.7° (Epoch: 24 February)

Event Time Altitude Azimuth Distance (km) Brightness Sun altitude
Rises 15:34:34 0° 111° (ESE) 2,876 ? -29.1°
Reaches altitude 10° 15:37:14 10° 94° (E) 1,982 ? -28.8°
Maximum altitude 15:40:15 19° 49° (NE) 1,492 ? -28.4°
Drops below altitude 10° 15:43:18 10° 5° (N) 2,013 ? -28.0°
Enters shadow 15:43:49 - 0° (N) 2,171 ? -28.0°
